This is the latest recevied weather packets stored in our database for station/object N5AJY. If no packets are shown the sender has not sent any weather packets the latest 10 day(s).
| Time | Temp. | Humidity | Pressure | Rain* | Wind** | Luminosity | Snow |
|---|---|---|---|---|---|---|---|
| 1777768914 | 17.78° C | 42% | 1014.9 hPa | 0 mm | - | - | - |
| 1777768613 | 18.33° C | 42% | 1014.9 hPa | 0 mm | - | - | - |
| 1777768319 | 18.33° C | 42% | 1014.9 hPa | 0 mm | - | - | - |
| 1777768014 | 18.89° C | 41% | 1015 hPa | 0 mm | - | - | - |
| 1777767713 | 18.89° C | 41% | 1015 hPa | 0 mm | - | - | - |
| 1777767414 | 18.89° C | 40% | 1015 hPa | 0 mm | - | - | - |
| 1777767113 | 18.89° C | 39% | 1015.1 hPa | 0 mm | - | - | - |
| 1777766814 | 19.44° C | 39% | 1015 hPa | 0 mm | - | - | - |
| 1777766513 | 19.44° C | 38% | 1015.1 hPa | 0 mm | - | - | - |
| 1777766216 | 20° C | 37% | 1015 hPa | 0 mm | - | - | - |
| 1777765915 | 20° C | 36% | 1015.1 hPa | 0 mm | - | - | - |
| 1777765613 | 20.56° C | 36% | 1015.1 hPa | 0 mm | - | - | - |
| 1777765314 | 21.11° C | 36% | 1015.2 hPa | 0 mm | - | - | - |
| 1777764714 | 21.11° C | 36% | 1015.2 hPa | 0 mm | - | - | - |
| 1777764114 | 20.56° C | 38% | 1015.2 hPa | 0 mm | - | - | - |
| 1777763813 | 20.56° C | 36% | 1015.2 hPa | 0 mm | - | - | - |
| 1777763516 | 21.11° C | 36% | 1015.3 hPa | 0 mm | - | - | - |
| 1777763214 | 21.11° C | 36% | 1015.3 hPa | 0 mm | - | - | - |
| 1777762915 | 20.56° C | 35% | 1015.3 hPa | 0 mm | - | - | - |
| 1777762613 | 20.56° C | 35% | 1015.2 hPa | 0 mm | - | - | - |
| 1777762312 | 20.56° C | 37% | 1015.2 hPa | 0 mm | - | - | - |
| 1777762014 | 21.11° C | 34% | 1015.3 hPa | 0 mm | - | - | - |
| 1777761713 | 21.11° C | 37% | 1015.3 hPa | 0 mm | - | - | - |
| 1777761414 | 21.11° C | 38% | 1015.3 hPa | 0 mm | - | - | - |
| 1777761113 | 21.11° C | 35% | 1015.2 hPa | 0 mm | - | - | - |
* Rain latest hour (hover to see other rain measurements)
** Current wind speed in m/s (hover to see current wind gust speed)